Content
SEND FEEDBACK

Daily
Averages
Monthly
Summary
Canada

LONDON, ONTARIO


Home > North America > Canada > Ontario
Elevation: 912 feet     Latitude: 43 02N     Longitude: 081 09W

WEATHER
 
SELECT A DAY
Number of Records: 191,696;   Date Range: 1/1/95 - 9/17/14
 
SHARE

PRINT THIS DATA

[ ← Previous Day ]
WEATHER ALMANAC - FEBRUARY 19, 2013
[ Next Day → ]
[ °C ]   °F
Weather ElementAverageHighLow
Temperature28.9 °F39.2 °F (7:54 am) (2:00 am)
Dewpoint25.4 °F36 °F (7:00 am) (7:00 pm)
Humidity86.2 %93 % (2:33 am)69 % (2:00 pm)
Barometer29.02 in29.82 in (11:30 pm) (7:00 pm)
Wind Speed20 mph32.2 mph (7:31 am)
Wind Gust38 mph (2:00 pm)
Weather ElementAverage
Visibility5.9 mi
Wind DirectionSSW (210.4 °)

Weather ElementTotal
Precipitation---
Heating Degree Days45.4 (Base 65)
Averaged from 47 records on February 19, 2013
WEATHER CONDITIONS BREAKOUT
WIND DIRECTION BREAKOUT
WEATHER BY HOUR - FEBRUARY 19, 2013
[ °C ]   °F
Local TimeTemperatureDewpointHumidityBarometerVisibilityWind DirectionWind SpeedGust SpeedPrecipitationEventsConditions
12:23 AM35.6 °F28.4 °F75 %29.76 in15.0 miSE (140°)8.1 mphRainLight Rain
1:00 AM34.0 °F29.0 °F77 %29.75 in10.0 miSE (130°)9.2 mphOvercast
1:00 AM33.8 °F30.2 °F87 %29.75 in10.0 miSE (130°)9.2 mphRainLight Rain
2:00 AM0.0 °F0.0 °F8.0 miNorth (10°)8.1 mphRainLight Rain
2:03 AM35.6 °F32.0 °F87 %29.72 in8.0 miSE (140°)8.1 mphRainLight Rain
2:33 AM37.4 °F35.6 °F93 %29.70 in5.0 miSouth (170°)13.8 mphRainLight Rain
2:52 AM37.4 °F33.8 °F87 %29.69 in4.0 miSouth (180°)13.8 mph20.7 mphRainLight Rain
3:00 AM37.4 °F33.8 °F87 %29.68 in4.0 miSouth (190°)15.0 mphRainLight Rain
4:00 AM37.4 °F35.6 °F93 %29.62 in3.0 miSSE (160°)15.0 mph20.7 mphRainLight Rain
5:00 AM37.4 °F35.6 °F93 %29.58 in3.0 miSSE (150°)20.7 mph28.8 mphRainLight Rain
6:00 AM37.4 °F35.6 °F93 %29.54 in4.0 miSouth (170°)24.2 mph32.2 mphRainLight Rain
7:00 AM37.0 °F36.0 °F92 %29.51 in6.0 miSouth (180°)24.2 mphOvercast
7:31 AM37.4 °F35.6 °F93 %29.50 in15.0 miSouth (170°)32.2 mphRainLight Rain Showers
7:54 AM39.2 °F35.6 °F87 %29.51 in15.0 miSSW (200°)28.8 mph36.8 mphRainLight Rain Showers
8:00 AM37.4 °F35.6 °F93 %29.50 in15.0 miSSW (200°)26.5 mph36.8 mphOvercast
8:20 AM37.4 °F35.6 °F93 %29.51 in8.0 miSSW (200°)19.6 mph28.8 mphLight Drizzle
8:49 AM37.4 °F33.8 °F87 %29.53 in10.0 miWSW (240°)21.9 mph28.8 mphOvercast
9:00 AM37.4 °F33.8 °F87 %29.53 in15.0 miWSW (250°)18.4 mph29.9 mphOvercast
9:27 AM35.6 °F32.0 °F87 %29.54 in15.0 miWSW (240°)23.0 mph31.1 mphOvercast
10:00 AM35.6 °F32.0 °F87 %29.55 in15.0 miSW (230°)16.1 mphLight Drizzle
11:00 AM35.6 °F32.0 °F87 %29.55 in10.0 miSW (230°)18.4 mph26.5 mphLight Drizzle
11:32 AM32.0 °F30.2 °F93 %29.57 in8.0 miSW (230°)23.0 mph29.9 mphOvercast
12:00 PM30.2 °F28.4 °F93 %29.58 in8.0 miWSW (240°)25.3 mph36.8 mphSnowLight Snow Showers
12:49 PM28.4 °F24.8 °F86 %29.59 in8.0 miSW (230°)24.2 mph33.4 mphSnowLight Snow Showers
1:00 PM28.0 °F24.0 °F80 %29.59 in7.0 miSW (230°)26.5 mphOvercast
1:00 PM28.4 °F24.8 °F86 %29.59 in8.0 miSW (230°)26.5 mph35.7 mphSnowLight Snow Showers
2:00 PM28.4 °F19.4 °F69 %29.60 in10.0 miWSW (240°)26.5 mph38.0 mphSnowLight Snow Showers
2:26 PM26.6 °F21.2 °F80 %29.61 in2.0 miSW (230°)21.9 mph28.8 mphSnowLight Snow Showers
2:37 PM26.6 °F21.2 °F80 %29.62 in1.0 miWSW (240°)23.0 mph34.5 mphSnowLight Snow Showers
2:44 PM26.6 °F21.2 °F80 %29.62 in1.0 miWSW (240°)26.5 mph32.2 mphSnowLight Snow Showers
3:00 PM24.8 °F19.4 °F80 %29.63 in4.0 miSW (230°)25.3 mph33.4 mphSnowLight Snow Showers
3:22 PM26.6 °F19.4 °F74 %29.63 in1.0 miSW (230°)24.2 mph33.4 mphSnowLight Snow Showers
4:00 PM24.8 °F19.4 °F80 %29.65 in1.5 miSW (230°)18.4 mph28.8 mphSnowLight Snow Showers
4:44 PM23.0 °F19.4 °F86 %29.68 in0.5 miSW (230°)19.6 mph31.1 mphSnowLight Snow Showers
5:00 PM23.0 °F19.4 °F86 %29.70 in0.5 miWSW (240°)23.0 mph32.2 mphSnowLight Snow Showers
5:48 PM23.0 °F19.4 °F86 %29.72 in1.0 miWSW (240°)18.4 mph25.3 mphSnowLight Snow Showers
6:00 PM21.2 °F19.4 °F93 %29.72 in0.5 miSW (230°)25.3 mph32.2 mphSnowLight Snow Showers
6:25 PM21.2 °F19.4 °F93 %29.74 in1.0 miSW (230°)20.7 mph27.6 mphSnowLight Snow Showers
7:48 PM21.2 °F17.6 °F86 %29.77 in10.0 miWSW (240°)21.9 mph27.6 mphSnowLight Snow Showers
8:00 PM21.2 °F17.6 °F86 %29.77 in1.0 miWSW (240°)17.3 mph25.3 mphSnowLight Snow Showers
8:15 PM21.2 °F17.6 °F86 %29.78 in0.8 miWSW (240°)19.6 mph27.6 mphSnowLight Snow Showers
9:00 PM21.2 °F17.6 °F86 %29.78 in2.0 miWSW (240°)17.3 mph25.3 mphSnowLight Snow Showers
9:12 PM21.2 °F17.6 °F86 %29.79 in0.8 miWSW (240°)18.4 mph25.3 mphSnowLight Snow Showers
10:00 PM19.4 °F15.8 °F86 %29.80 in0.8 miWSW (250°)20.7 mph27.6 mphSnowLight Snow Showers
11:00 PM19.4 °F15.8 °F86 %29.81 in0.8 miWSW (250°)20.7 mphSnowLight Snow Showers
11:19 PM19.4 °F15.8 °F86 %29.81 in1.0 miWSW (250°)16.1 mph25.3 mphSnowLight Snow Showers
11:30 PM19.4 °F15.8 °F86 %29.82 in0.8 miWest (260°)15.0 mph25.3 mphSnowLight Snow Showers
Hourly data recorded from CYXU, located miles away from London, Ontario







STORIES FROM OUR PARTNERS